| time (UTC) | temp F | wind direction | speed knots | gust knots | rain 1hr in | rain 24hr in | rain mn in | humidity % | barometer mb |
| 20260504014645 | 57 | 231 | 3.5 | 8.7 | 0.00 | 0.00 | 0.00 | 79 | 1005.8 |
| 20260504014145 | 58 | 189 | 1.7 | 8.7 | 0.00 | 0.00 | 0.00 | 79 | 1005.7 |
| 20260504013644 | 58 | 183 | 3.5 | 8.7 | 0.00 | 0.00 | 0.00 | 79 | 1005.8 |
| 20260504013145 | 58 | 172 | 4.3 | 8.7 | 0.00 | 0.00 | 0.00 | 78 | 1005.7 |
| 20260504012645 | 59 | 187 | 1.7 | 8.7 | 0.00 | 0.00 | 0.00 | 78 | 1005.7 |
| 20260504012145 | 59 | 194 | 3.5 | 7.0 | 0.00 | 0.00 | 0.00 | 77 | 1005.7 |
| 20260504011645 | 60 | 253 | 2.6 | 7.0 | 0.00 | 0.00 | 0.00 | 77 | 1005.7 |
| 20260504011145 | 60 | 232 | 3.5 | 9.6 | 0.00 | 0.00 | 0.00 | 77 | 1005.7 |
| 20260504010645 | 61 | 189 | 1.7 | 9.6 | 0.00 | 0.00 | 0.00 | 77 | 1005.6 |
| 20260504010146 | 61 | 207 | 4.3 | 9.6 | 0.00 | 0.00 | 0.00 | 76 | 1005.6 |
| 20260504005647 | 61 | 243 | 5.2 | 7.8 | 0.00 | 0.00 | 0.00 | 76 | 1005.6 |
| 20260504005144 | 62 | 215 | 3.5 | 7.8 | 0.00 | 0.00 | 0.00 | 76 | 1005.6 |
| 20260504004645 | 62 | 309 | 2.6 | 5.2 | 0.00 | 0.00 | 0.00 | 76 | 1005.6 |
| 20260504004148 | 62 | 253 | 0.9 | 3.5 | 0.00 | 0.00 | 0.00 | 76 | 1005.6 |
| 20260504003144 | 62 | 236 | 3.5 | 7.8 | 0.00 | 0.00 | 0.00 | 76 | 1005.5 |
| 20260504002645 | 62 | 235 | 1.7 | 7.8 | 0.00 | 0.00 | 0.00 | 75 | 1005.4 |
| 20260504002144 | 63 | 201 | 2.6 | 7.8 | 0.00 | 0.00 | 0.00 | 75 | 1005.4 |
| 20260504001644 | 63 | 169 | 1.7 | 7.8 | 0.00 | 0.00 | 0.00 | 74 | 1005.3 |
| 20260504001149 | 64 | 257 | 2.6 | 6.1 | 0.00 | 0.00 | 0.00 | 74 | 1005.3 |
| 20260504000644 | 64 | 246 | 1.7 | 6.1 | 0.00 | 0.00 | 0.00 | 74 | 1005.2 |
| 20260504000146 | 64 | 254 | 3.5 | 5.2 | 0.00 | 0.00 | 0.00 | 74 | 1005.2 |
| 20260503235645 | 64 | 268 | 1.7 | 3.5 | 0.00 | 0.00 | 0.00 | 74 | 1005.2 |
| 20260503235144 | 64 | 263 | 1.7 | 5.2 | 0.00 | 0.00 | 0.00 | 74 | 1005.1 |
| 20260503234645 | 65 | 239 | 1.7 | 5.2 | 0.00 | 0.00 | 0.00 | 73 | 1005.1 |
| 20260503234145 | 65 | 229 | 3.5 | 5.2 | 0.00 | 0.00 | 0.00 | 73 | 1005.1 |
| 20260503233644 | 65 | 271 | 2.6 | 5.2 | 0.00 | 0.00 | 0.00 | 73 | 1005.0 |
| 20260503233144 | 65 | 268 | 1.7 | 5.2 | 0.00 | 0.00 | 0.00 | 72 | 1005.0 |
| 20260503232144 | 66 | 231 | 1.7 | 4.3 | 0.00 | 0.00 | 0.00 | 70 | 1005.0 |
| 20260503231644 | 67 | 270 | 0.9 | 4.3 | 0.00 | 0.00 | 0.00 | 71 | 1005.0 |
| 20260503230644 | 67 | 239 | 2.6 | 3.5 | 0.00 | 0.00 | 0.00 | 70 | 1005.0 |
| 20260503230146 | 67 | 253 | 2.6 | 4.3 | 0.00 | 0.00 | 0.00 | 70 | 1005.1 |
| 20260503225645 | 67 | 246 | 2.6 | 4.3 | 0.00 | 0.00 | 0.00 | 69 | 1005.3 |
| 20260503224645 | 68 | 240 | 2.6 | 3.5 | 0.00 | 0.00 | 0.00 | 69 | 1005.4 |
| 20260503224145 | 68 | 243 | 2.6 | 3.5 | 0.00 | 0.00 | 0.00 | 70 | 1005.5 |
| 20260503223646 | 68 | 224 | 1.7 | 3.5 | 0.00 | 0.00 | 0.00 | 69 | 1005.5 |
| 20260503223144 | 68 | 282 | 1.7 | 4.3 | 0.00 | 0.00 | 0.00 | 68 | 1005.6 |
| 20260503222647 | 68 | 273 | 2.6 | 4.3 | 0.00 | 0.00 | 0.00 | 68 | 1005.7 |
| 20260503222144 | 68 | 249 | 1.7 | 4.3 | 0.00 | 0.00 | 0.00 | 67 | 1005.6 |
| 20260503221644 | 68 | 231 | 1.7 | 3.5 | 0.00 | 0.00 | 0.00 | 69 | 1005.7 |
| 20260503221148 | 68 | 218 | 1.7 | 3.5 | 0.00 | 0.00 | 0.00 | 69 | 1005.8 |
| 20260503220645 | 68 | 254 | 2.6 | 3.5 | 0.00 | 0.00 | 0.00 | 70 | 1005.9 |
| 20260503220147 | 68 | 247 | 1.7 | 3.5 | 0.00 | 0.00 | 0.00 | 69 | 1005.9 |
| 20260503215145 | 68 | 224 | 2.6 | 5.2 | 0.00 | 0.00 | 0.00 | 69 | 1006.0 |
| 20260503214145 | 68 | 256 | 2.6 | 5.2 | 0.00 | 0.00 | 0.00 | 69 | 1006.1 |
| 20260503213645 | 68 | 247 | 2.6 | 4.3 | 0.00 | 0.00 | 0.00 | 68 | 1006.2 |
| 20260503213144 | 69 | 233 | 2.6 | 3.5 | 0.00 | 0.00 | 0.00 | 68 | 1006.1 |
| 20260503212646 | 69 | 238 | 0.9 | 4.3 | 0.00 | 0.00 | 0.00 | 68 | 1006.2 |
| 20260503212145 | 69 | 246 | 1.7 | 4.3 | 0.00 | 0.00 | 0.00 | 69 | 1006.2 |
| 20260503211644 | 69 | 253 | 1.7 | 4.3 | 0.00 | 0.00 | 0.00 | 69 | 1006.2 |
| 20260503211148 | 69 | 242 | 3.5 | 3.5 | 0.00 | 0.00 | 0.00 | 70 | 1006.2 |
| 20260503210644 | 69 | 247 | 1.7 | 3.5 | 0.00 | 0.00 | 0.00 | 71 | 1006.1 |
| 20260503210147 | 68 | 278 | 1.7 | 3.5 | 0.00 | 0.00 | 0.00 | 72 | 1006.2 |
| 20260503205645 | 68 | 280 | 2.6 | 3.5 | 0.00 | 0.00 | 0.00 | 72 | 1006.2 |
| 20260503205144 | 68 | 267 | 0.9 | 3.5 | 0.00 | 0.00 | 0.00 | 70 | 1006.2 |
| 20260503204645 | 68 | 294 | 1.7 | 3.5 | 0.00 | 0.00 | 0.00 | 70 | 1006.2 |
| 20260503204145 | 68 | 280 | 2.6 | 2.6 | 0.00 | 0.00 | 0.00 | 71 | 1006.3 |
| 20260503203644 | 69 | 292 | 0.9 | 6.1 | 0.00 | 0.00 | 0.00 | 71 | 1006.3 |
| 20260503203144 | 69 | 298 | 2.6 | 6.1 | 0.00 | 0.00 | 0.00 | 69 | 1006.3 |
| 20260503202645 | 69 | 285 | 3.5 | 6.1 | 0.00 | 0.00 | 0.00 | 69 | 1006.3 |
| 20260503202145 | 70 | 301 | 2.6 | 6.1 | 0.00 | 0.00 | 0.00 | 70 | 1006.4 |
| 20260503201645 | 70 | 294 | 4.3 | 6.1 | 0.00 | 0.00 | 0.00 | 70 | 1006.3 |
| 20260503201147 | 70 | 301 | 4.3 | 6.1 | 0.00 | 0.00 | 0.00 | 69 | 1006.4 |
| 20260503200737 | 71 | 287 | 2.6 | 6.1 | 0.00 | 0.00 | 0.00 | 69 | 1006.4 |
| 20260503200646 | 71 | 287 | 2.6 | 6.1 | 0.00 | 0.00 | 0.00 | 69 | 1006.4 |
| 20260503195144 | 72 | 299 | 3.5 | 4.3 | 0.00 | 0.00 | 0.00 | 66 | 1006.5 |
| 20260503194644 | 72 | 289 | 2.6 | 4.3 | 0.00 | 0.00 | 0.00 | 67 | 1006.5 |
| 20260503194218 | 72 | 239 | 1.7 | 4.3 | 0.00 | 0.00 | 0.00 | 69 | 1006.4 |
| 20260503194145 | 72 | 239 | 1.7 | 4.3 | 0.00 | 0.00 | 0.00 | 69 | 1006.4 |
| 20260503193645 | 72 | 308 | 0.0 | 4.3 | 0.00 | 0.00 | 0.00 | 68 | 1006.5 |
| 20260503191645 | 71 | 270 | 1.7 | 3.5 | 0.00 | 0.00 | 0.00 | 68 | 1006.6 |
| 20260503190644 | 72 | 243 | 1.7 | 3.5 | 0.00 | 0.00 | 0.00 | 67 | 1006.6 |
| 20260503185648 | 70 | 278 | 0.0 | 1.7 | 0.00 | 0.00 | 0.00 | 71 | 1006.7 |
| 20260503185147 | 70 | 224 | 0.0 | 2.6 | 0.00 | 0.00 | 0.00 | 71 | 1006.7 |
| 20260503184645 | 69 | 260 | 0.0 | 2.6 | 0.00 | 0.00 | 0.00 | 73 | 1006.7 |
| 20260503184145 | 68 | 281 | 0.0 | 2.6 | 0.00 | 0.00 | 0.00 | 71 | 1006.8 |
| 20260503183645 | 68 | 322 | 0.9 | 2.6 | 0.00 | 0.00 | 0.00 | 73 | 1006.7 |
| 20260503183145 | 68 | 292 | 0.9 | 2.6 | 0.00 | 0.00 | 0.00 | 71 | 1006.7 |
| 20260503182645 | 68 | 285 | 0.0 | 2.6 | 0.00 | 0.00 | 0.00 | 74 | 1006.8 |
| 20260503182144 | 67 | 319 | 0.9 | 2.6 | 0.00 | 0.00 | 0.00 | 74 | 1006.8 |
| 20260503181644 | 67 | 296 | 0.9 | 1.7 | 0.00 | 0.00 | 0.00 | 74 | 1006.8 |
| 20260503181145 | 68 | 277 | 0.9 | 1.7 | 0.00 | 0.00 | 0.00 | 72 | 1006.8 |
| 20260503180644 | 68 | 291 | 0.0 | 1.7 | 0.00 | 0.00 | 0.00 | 73 | 1006.7 |
| 20260503180148 | 68 | 302 | 0.0 | 1.7 | 0.00 | 0.00 | 0.00 | 74 | 1006.7 |
| 20260503175645 | 68 | 287 | 0.0 | 1.7 | 0.00 | 0.00 | 0.00 | 73 | 1006.7 |
| 20260503175144 | 67 | 309 | 0.0 | 1.7 | 0.00 | 0.00 | 0.00 | 75 | 1006.7 |
| 20260503174644 | 66 | 0 | 0.0 | 0.0 | 0.00 | 0.00 | 0.00 | 76 | 1006.7 |
| 20260503174145 | 65 | 0 | 0.0 | 0.0 | 0.00 | 0.00 | 0.00 | 77 | 1006.7 |
| 20260503173645 | 65 | 284 | 0.0 | 0.0 | 0.00 | 0.00 | 0.00 | 78 | 1006.7 |
| 20260503173145 | 64 | 303 | 0.0 | 2.6 | 0.00 | 0.00 | 0.00 | 78 | 1006.8 |
| 20260503172646 | 64 | 288 | 0.9 | 2.6 | 0.00 | 0.00 | 0.00 | 77 | 1006.8 |
| 20260503172145 | 64 | 303 | 0.9 | 2.6 | 0.00 | 0.00 | 0.00 | 78 | 1006.8 |
| 20260503171645 | 63 | 296 | 0.0 | 2.6 | 0.00 | 0.00 | 0.00 | 77 | 1006.8 |
| 20260503170738 | 62 | 289 | 0.0 | 1.7 | 0.00 | 0.00 | 0.00 | 80 | 1006.8 |
| 20260503170645 | 62 | 289 | 0.0 | 1.7 | 0.00 | 0.00 | 0.00 | 80 | 1006.8 |
| 20260503170147 | 62 | 316 | 0.9 | 2.6 | 0.00 | 0.00 | 0.00 | 81 | 1006.7 |
| 20260503150644 | 54 | 298 | 1.7 | 3.5 | 0.00 | 0.00 | 0.00 | 88 | 1006.5 |
| 20260503150148 | 54 | 102 | 2.6 | 2.6 | 0.00 | 0.00 | 0.00 | 89 | 1006.5 |
| 20260503140147 | 50 | 0 | 0.0 | 1.7 | 0.00 | 0.00 | 0.00 | 88 | 1006.7 |
| 20260503131145 | 51 | 112 | 4.3 | 7.0 | 0.00 | 0.00 | 0.00 | 88 | 1006.2 |
| 20260503130644 | 51 | 107 | 6.1 | 7.0 | 0.00 | 0.00 | 0.00 | 88 | 1006.1 |
| 20260503130146 | 50 | 103 | 4.3 | 7.0 | 0.00 | 0.00 | 0.00 | 88 | 1006.2 |
| 20260503120146 | 49 | 113 | 0.0 | 1.7 | 0.00 | 0.00 | 0.00 | 87 | 1006.7 |
| 20260503110645 | 49 | 58 | 0.0 | 3.5 | 0.00 | 0.00 | 0.00 | 87 | 1006.8 |
| 20260503110146 | 49 | 96 | 0.0 | 3.5 | 0.00 | 0.00 | 0.00 | 87 | 1006.8 |
| 20260503081147 | 51 | 0 | 0.0 | 1.7 | 0.00 | 0.00 | 0.00 | 86 | 1008.2 |
| 20260503080644 | 51 | 340 | 0.0 | 1.7 | 0.00 | 0.00 | 0.00 | 85 | 1008.3 |
| 20260503072144 | 52 | 103 | 1.7 | 3.5 | 0.00 | 0.00 | 0.00 | 85 | 1008.6 |
| 20260503071645 | 52 | 95 | 0.9 | 3.5 | 0.00 | 0.00 | 0.00 | 85 | 1008.5 |
| 20260503071145 | 52 | 102 | 3.5 | 3.5 | 0.00 | 0.00 | 0.00 | 85 | 1008.6 |
| 20260503070148 | 52 | 0 | 0.9 | 1.7 | 0.00 | 0.00 | 0.00 | 85 | 1008.6 |
| 20260503054644 | 54 | 102 | 0.0 | 1.7 | 0.00 | 0.00 | 0.00 | 84 | 1008.9 |
| 20260503054145 | 54 | 0 | 0.9 | 1.7 | 0.00 | 0.00 | 0.00 | 84 | 1008.8 |
| 20260503053645 | 54 | 100 | 0.0 | 1.7 | 0.00 | 0.00 | 0.00 | 84 | 1008.9 |
| 20260503053144 | 54 | 107 | 0.0 | 1.7 | 0.00 | 0.00 | 0.00 | 84 | 1008.9 |
| 20260503052646 | 54 | 116 | 0.0 | 2.6 | 0.00 | 0.00 | 0.00 | 84 | 1008.8 |
| 20260503052144 | 54 | 77 | 0.0 | 2.6 | 0.00 | 0.00 | 0.00 | 84 | 1008.8 |
| 20260503051644 | 54 | 109 | 0.9 | 2.6 | 0.00 | 0.00 | 0.00 | 84 | 1008.9 |
| 20260503051145 | 54 | 0 | 0.0 | 0.9 | 0.00 | 0.00 | 0.00 | 84 | 1008.9 |
| 20260503050644 | 54 | 8 | 0.0 | 0.9 | 0.00 | 0.00 | 0.00 | 84 | 1008.8 |
| 20260503045644 | 54 | 320 | 0.0 | 4.3 | 0.00 | 0.00 | 0.00 | 84 | 1008.8 |
| 20260503045145 | 54 | 334 | 1.7 | 4.3 | 0.00 | 0.00 | 0.00 | 84 | 1008.8 |
| 20260503044644 | 54 | 347 | 0.0 | 4.3 | 0.00 | 0.00 | 0.00 | 84 | 1008.8 |
| 20260503044145 | 55 | 329 | 0.9 | 5.2 | 0.00 | 0.00 | 0.00 | 84 | 1008.9 |
| 20260503043644 | 55 | 0 | 0.0 | 5.2 | 0.00 | 0.00 | 0.00 | 84 | 1009.0 |
| 20260503043144 | 54 | 327 | 0.0 | 5.2 | 0.00 | 0.00 | 0.00 | 84 | 1008.9 |
| 20260503042646 | 55 | 315 | 0.9 | 5.2 | 0.00 | 0.00 | 0.00 | 84 | 1008.9 |
| 20260503042144 | 55 | 340 | 3.5 | 7.8 | 0.00 | 0.00 | 0.00 | 84 | 1008.9 |
| 20260503041645 | 55 | 319 | 2.6 | 7.8 | 0.00 | 0.00 | 0.00 | 84 | 1008.9 |
| 20260503040644 | 55 | 306 | 6.1 | 10.4 | 0.00 | 0.00 | 0.00 | 84 | 1008.8 |
| 20260503035646 | 55 | 303 | 7.0 | 10.4 | 0.00 | 0.00 | 0.00 | 84 | 1008.8 |
| 20260503035144 | 55 | 334 | 6.1 | 11.3 | 0.00 | 0.00 | 0.00 | 83 | 1008.8 |
| 20260503034644 | 55 | 319 | 5.2 | 11.3 | 0.00 | 0.00 | 0.00 | 83 | 1008.8 |
| 20260503034145 | 55 | 316 | 6.1 | 11.3 | 0.00 | 0.00 | 0.00 | 83 | 1008.8 |
| 20260503033644 | 55 | 319 | 7.0 | 8.7 | 0.00 | 0.00 | 0.00 | 83 | 1008.8 |
| 20260503033144 | 55 | 322 | 4.3 | 9.6 | 0.00 | 0.00 | 0.00 | 83 | 1008.7 |
| 20260503032644 | 56 | 331 | 5.2 | 9.6 | 0.00 | 0.00 | 0.00 | 82 | 1008.7 |
| 20260503032220 | 56 | 319 | 5.2 | 9.6 | 0.00 | 0.00 | 0.00 | 82 | 1008.6 |
| 20260503032144 | 56 | 319 | 5.2 | 9.6 | 0.00 | 0.00 | 0.00 | 82 | 1008.6 |
| 20260503031644 | 56 | 336 | 5.2 | 8.7 | 0.00 | 0.00 | 0.00 | 82 | 1008.7 |
| 20260503031145 | 56 | 344 | 7.0 | 7.0 | 0.00 | 0.00 | 0.00 | 82 | 1008.6 |
| 20260503030644 | 56 | 331 | 3.5 | 6.1 | 0.00 | 0.00 | 0.00 | 82 | 1008.8 |
| 20260503025644 | 56 | 303 | 4.3 | 7.0 | 0.00 | 0.00 | 0.00 | 81 | 1008.8 |
| 20260503024644 | 56 | 322 | 1.7 | 7.0 | 0.00 | 0.00 | 0.00 | 81 | 1008.9 |
| 20260503024145 | 57 | 340 | 3.5 | 10.4 | 0.00 | 0.00 | 0.00 | 81 | 1008.8 |
| 20260503023644 | 57 | 312 | 6.1 | 10.4 | 0.00 | 0.00 | 0.00 | 81 | 1008.8 |
| 20260503023144 | 57 | 330 | 5.2 | 10.4 | 0.00 | 0.00 | 0.00 | 81 | 1008.7 |
| 20260503022644 | 57 | 333 | 6.1 | 9.6 | 0.00 | 0.00 | 0.00 | 81 | 1008.5 |
| 20260503022144 | 57 | 326 | 4.3 | 9.6 | 0.00 | 0.00 | 0.00 | 81 | 1008.4 |
| 20260503021645 | 57 | 294 | 5.2 | 13.0 | 0.00 | 0.00 | 0.00 | 81 | 1008.4 |
| 20260503020644 | 57 | 327 | 7.0 | 13.0 | 0.00 | 0.00 | 0.00 | 80 | 1008.5 |
| 20260503015646 | 57 | 296 | 6.1 | 10.4 | 0.00 | 0.00 | 0.00 | 80 | 1008.5 |
| 20260503015144 | 58 | 331 | 5.2 | 13.0 | 0.00 | 0.00 | 0.00 | 80 | 1008.6 |